Flag for U.S.A. Weather past 2 weeks in Flint, Michigan, U.S.A.

Now
14 °F

Sunny.


Feels Like: 0 °F
Forecast: 1 / 15 °F
Wind: 12 mph from Northwest

Location: Bishop International Airport

Current Time: Mar 5, 2015 at 2:53:02 PM

Latest Report: Mar 5, 2015 at 1:53 PM


Visibility: 10 mi

Pressure: 30.45 "Hg

Humidity: 47%

Dew point: -3 °F

Location of FlintLocation

Historic Weather in Flint — Graph

°F

Flint temperature yesterday

Maximum temperature yesterday: 31 °F (at 12:53 AM)
Minimum temperature yesterday: 13 °F (at 11:53 PM)
Average temperature yesterday: 26 °F

Past Weeks' High & Low Weather Summary

 TemperatureHumidityPressure
High36 °F (Mar 3, 6:53 PM)85% (Feb 22, 5:53 AM)30.78 "Hg (Feb 22, 5:53 AM)
Low-23 °F (Feb 20, 3:53 AM)35% (Feb 24, 11:53 AM)29.54 "Hg (Mar 3, 4:58 PM)
Average13 °F61%30.24 "Hg
* Reported Feb 18 12:53 PM — Mar 5 12:53 PM, Flint, Weather by CustomWeather, © 2015

Note: Actual official high and low records may vary slightly from our data, if they occured in-between our weather recording intervals... More about our weather records

Advertising

Flint weather history for previous 24 hours

 ConditionsComfort  
Time TempWeatherWind HumidityBarometerVisibility
12:53 PM
Thu, Mar 5
13 °FSunny.8 mph46%30.46 "Hg10 mi
11:53 AM12 °FSunny.10 mph46%30.45 "Hg10 mi
10:53 AM11 °FSunny.7 mph44%30.46 "Hg10 mi
9:53 AM9 °FSunny.5 mph45%30.46 "Hg10 mi
8:53 AM7 °FSunny.5 mph50%30.44 "Hg10 mi
7:53 AM2 °FSunny.3 mph69%30.43 "Hg10 mi
6:53 AM3 °FPassing clouds.3 mph69%30.39 "Hg10 mi
5:53 AM1 °FClear.No wind72%30.39 "Hg10 mi
4:53 AM5 °FClear.5 mph66%30.37 "Hg10 mi
3:53 AM6 °FClear.7 mph69%30.34 "Hg10 mi
2:53 AM9 °FClear.8 mph64%30.35 "Hg10 mi
1:53 AM11 °FClear.7 mph61%30.33 "Hg10 mi
12:53 AM12 °FClear.10 mph61%30.30 "Hg10 mi
11:53 PM
Wed, Mar 4
13 °FClear.8 mph56%30.29 "Hg10 mi
10:53 PM15 °FClear.14 mph51%30.27 "Hg10 mi
9:53 PM16 °FClear.13 mph49%30.23 "Hg10 mi
8:53 PM17 °FClear.18 mph45%30.18 "Hg10 mi
7:53 PM19 °FClear.15 mph49%30.14 "Hg10 mi
6:53 PM20 °FClear.18 mph50%30.11 "Hg10 mi
5:53 PM24 °FOvercast.22 mph52%30.06 "Hg10 mi
4:53 PM26 °FScattered clouds.22 mph52%30.03 "Hg10 mi
3:53 PM28 °FPartly sunny.21 mph49%30.00 "Hg10 mi
2:53 PM29 °FPassing clouds.20 mph51%29.98 "Hg10 mi
Weather by CustomWeather, © 2015

See weather overviewHow to use our weather pages